Regional Weather Roundup
Issued by NWS

Home | Current Version | Previous Version | Graphics & Text | Print | Product List | Glossary On
Versions: 1 2 3 4 5 6 7 8 9 10 11 12 13 14 15 16 17 18 19 20 21 22 23 24 25 26 27 28 29 30 31 32 33 34 35 36 37 38 39 40 41 42 43 44 45 46 47 48 49 50
000
ASUS43 KLSX 160957
RWRMO

WEATHER SUMMARY FOR MISSOURI
NATIONAL WEATHER SERVICE SPRINGFIELD MO
400 AM CST MON JAN 16 2017

NOTE: "FAIR" INDICATES FEW OR NO CLOUDS BELOW 12,000 FEET WITH NO
       SIGNIFICANT WEATHER AND/OR OBSTRUCTIONS TO VISIBILITY.
       CURRENT SKY AND/OR WEATHER CONDITIONS ARE NOT AVAILABLE FOR
       CHILLICOTHE AND FARMINGTON.

MOZ001>031-035>038-043-044-053-054-161100-
...NORTHERN AND WESTERN MISSOURI...

CITY           SKY/WX    TMP DP  RH WIND       PRES   REMARKS
KANSAS CTY INT LGT RAIN  33  31  92 E12       30.00F FOG     WCI  24
LEE`S SUMMIT   LGT RAIN  34  32  92 E12       30.00F WCI  25
ST JOSEPH      MIX PCPN  32  32 100 NE8       30.03F FOG     WCI  25
CHILLICOTHE      N/A     33  32  96 E7        30.09F WCI  27

$$
MOZ066>068-077>081-088>096-101>105-161100-
...SOUTHWEST MISSOURI...

CITY           SKY/WX    TMP DP  RH WIND       PRES   REMARKS
SPRINGFIELD    CLOUDY    47  45  93 SE23G30   30.00F

$$
MOZ032>034-039>042-045>050-055>058-069>072-161100-
...CENTRAL MISSOURI...

CITY           SKY/WX    TMP DP  RH WIND       PRES   REMARKS
COLUMBIA       NOT AVBL
JEFFERSON CITY CLOUDY    38  36  92 E8        30.09F
ROLLA          FOG       36  36 100 SE8       30.07F VSB 3/4 WCI  30
SEDALIA        LGT RAIN  38  37  97 E10       30.04F FOG
WHITEMAN AFB   LGT RAIN  37  37 100 E5        30.02F FOG
WARRENSBURG    LGT RAIN  34  34 100 NE7       30.03F WCI  28

$$
MOZ051-052-059>065-161100-
...EAST CENTRAL MISSOURI...

CITY           SKY/WX    TMP DP  RH WIND       PRES   REMARKS
ST LOUIS INTL  FOG       39  37  92 E7        30.16F VSB 1/4
SPIRIT OF STL  FOG       38  38 100 E5        30.16F VSB 1

$$
MOZ072>076-082>087-097>100-106>115-161100-
...SOUTH CENTRAL AND SOUTHEAST MISSOURI...

CITY           SKY/WX    TMP DP  RH WIND       PRES   REMARKS
CAPE GIRARDEAU FOG       42  41  96 E5        30.16F VSB 1/2
POPLAR BLUFF   FOG       42  42 100 NE5       30.14F VSB 1/4
WEST PLAINS    FOG       42  42 100 E8        30.10F VSB 1/4

$$



USA.gov is the U.S. government's official web portal to all federal, state and local government web resources and services.